KD7MPG-3 Weather Reports


Display with metric or nautical units.
time (UTC)temp
F
wind
direction
speed
MPH
gust
MPH
rain 1hr
in
rain 24hr
in
rain mn
in
humidity
%
barometer
mb
20260503002211 69 78 1.0 2.0 0.00 0.00 0.00 69 1020.5
20260503001712 69 96 1.0 4.0 0.00 0.00 0.00 70 1020.6
20260503001208 69 96 1.0 5.0 0.00 0.00 0.00 69 1020.5
20260503000706 69 36 1.0 5.0 0.00 0.00 0.00 70 1020.5
20260503000208 69 0 1.0 4.0 0.00 0.00 0.00 68 1020.4
20260502235707 69 355 1.0 4.0 0.00 0.00 0.00 69 1020.4
20260502235205 69 65 2.0 4.0 0.00 0.00 0.00 71 1020.5
20260502234706 69 90 2.0 6.0 0.00 0.00 0.00 71 1020.5
20260502234159 68 273 3.0 6.0 0.00 0.00 0.00 70 1020.5
20260502233659 68 0 3.0 12.0 0.00 0.00 0.00 71 1020.7
20260502233200 68 350 3.0 12.0 0.00 0.00 0.00 70 1020.7
20260502232659 68 59 3.0 8.0 0.00 0.00 0.00 71 1020.8
20260502232156 68 349 2.0 8.0 0.00 0.00 0.00 69 1020.9
20260502231656 68 0 2.0 5.0 0.00 0.00 0.00 71 1021.0
20260502231152 67 17 2.0 5.0 0.00 0.00 0.00 72 1021.1
20260502230651 67 342 2.0 5.0 0.00 0.00 0.00 71 1021.1
20260502230151 67 25 1.0 5.0 0.00 0.00 0.00 72 1021.3
20260502225651 66 72 2.0 5.0 0.00 0.00 0.00 74 1021.4
20260502225151 66 24 2.0 5.0 0.00 0.00 0.00 73 1021.4
20260502224652 66 332 2.0 5.0 0.00 0.00 0.00 75 1021.6
20260502224146 65 287 3.0 8.0 0.00 0.00 0.00 73 1021.5
20260502223645 65 30 3.0 8.0 0.00 0.00 0.00 73 1021.7
20260502223145 66 49 2.0 6.0 0.00 0.00 0.00 74 1021.8
20260502222645 66 250 2.0 4.0 0.00 0.00 0.00 73 1021.8
20260502222145 66 21 2.0 4.0 0.00 0.00 0.00 73 1021.9
20260502221646 66 54 2.0 10.0 0.00 0.00 0.00 74 1022.0
20260502221145 66 123 3.0 10.0 0.00 0.00 0.00 76 1021.9
20260502220638 66 105 2.0 7.0 0.00 0.00 0.00 74 1021.9
20260502220131 66 71 2.0 7.0 0.00 0.00 0.00 75 1022.0
20260502215628 66 51 2.0 7.0 0.00 0.00 0.00 74 1022.1
20260502215133 66 11 2.0 7.0 0.00 0.00 0.00 75 1022.1
20260502214630 66 14 2.0 7.0 0.00 0.00 0.00 73 1022.2
20260502214129 66 85 3.0 7.0 0.00 0.00 0.00 75 1022.3
20260502213628 66 86 3.0 7.0 0.00 0.00 0.00 75 1022.3
20260502213131 66 92 2.0 7.0 0.00 0.00 0.00 73 1022.2
20260502212623 66 115 2.0 6.0 0.00 0.00 0.00 72 1022.3
20260502212119 67 86 3.0 8.0 0.00 0.00 0.00 72 1022.3
20260502211618 67 349 3.0 9.0 0.00 0.00 0.00 72 1022.5
20260502211121 67 65 3.0 9.0 0.00 0.00 0.00 73 1022.6
20260502210618 66 13 3.0 8.0 0.00 0.00 0.00 74 1022.7
20260502210118 65 76 2.0 8.0 0.00 0.00 0.00 74 1022.7
20260502205621 65 17 3.0 8.0 0.00 0.00 0.00 74 1022.8
20260502205115 65 279 3.0 8.0 0.00 0.00 0.00 73 1022.9
20260502204615 65 263 2.0 7.0 0.00 0.00 0.00 72 1022.9
20260502204115 64 279 2.0 7.0 0.00 0.00 0.00 74 1022.8
20260502203614 64 293 2.0 7.0 0.00 0.00 0.00 73 1023.0
20260502203114 64 51 3.0 9.0 0.00 0.00 0.00 75 1023.0
20260502202616 63 355 3.0 9.0 0.00 0.00 0.00 73 1023.2
20260502202110 63 83 3.0 9.0 0.00 0.00 0.00 75 1023.2
20260502201611 62 11 4.0 9.0 0.00 0.00 0.00 76 1023.2
20260502201111 62 330 3.0 8.0 0.00 0.00 0.00 77 1023.2
20260502200610 62 309 2.0 9.0 0.00 0.00 0.00 76 1023.4
20260502200111 62 53 2.0 9.0 0.00 0.00 0.00 76 1023.4
20260502195612 62 5 3.0 7.0 0.00 0.00 0.00 75 1023.5
20260502195112 62 319 2.0 7.0 0.00 0.00 0.00 75 1023.7
20260502194610 62 355 2.0 8.0 0.00 0.00 0.00 75 1023.7
20260502194108 62 174 2.0 8.0 0.00 0.00 0.00 75 1023.9
20260502193609 61 76 3.0 9.0 0.00 0.00 0.00 77 1023.8
20260502193107 61 288 3.0 9.0 0.00 0.00 0.00 76 1023.8
20260502192606 60 80 3.0 8.0 0.00 0.00 0.00 78 1023.8
20260502192108 60 338 2.0 5.0 0.00 0.00 0.00 77 1023.8
20260502191603 60 26 3.0 9.0 0.00 0.00 0.00 77 1024.0
20260502191102 60 0 2.0 9.0 0.00 0.00 0.00 78 1023.8
20260502190603 60 26 2.0 7.0 0.00 0.00 0.00 78 1024.0
20260502190058 60 113 2.0 5.0 0.00 0.00 0.00 78 1024.0
20260502185558 60 74 2.0 5.0 0.00 0.00 0.00 80 1024.0
20260502185100 59 78 2.0 7.0 0.00 0.00 0.00 81 1024.2
20260502184558 59 65 2.0 7.0 0.00 0.00 0.00 83 1024.2
20260502184056 58 112 2.0 6.0 0.00 0.00 0.00 86 1024.4
20260502183556 57 75 3.0 7.0 0.00 0.00 0.00 85 1024.4
20260502183052 57 350 2.0 7.0 0.00 0.00 0.00 82 1024.6
20260502182552 57 16 2.0 5.0 0.00 0.00 0.00 82 1024.5
20260502182050 57 113 2.0 10.0 0.00 0.00 0.00 84 1024.6
20260502181550 57 66 2.0 10.0 0.00 0.00 0.00 86 1024.4
20260502181050 57 355 3.0 8.0 0.00 0.00 0.00 86 1024.3
20260502180551 56 71 2.0 8.0 0.00 0.00 0.00 86 1024.2
20260502164032 55 292 1.0 6.0 0.00 0.00 0.00 84 1024.8
20260502163533 55 51 3.0 6.0 0.00 0.00 0.00 83 1025.0
20260502163028 55 275 2.0 6.0 0.00 0.00 0.00 84 1024.9
20260502162527 54 252 1.0 6.0 0.00 0.00 0.00 84 1024.8
20260502162029 54 305 2.0 6.0 0.00 0.00 0.00 85 1024.7
20260502161529 53 10 3.0 6.0 0.00 0.00 0.00 85 1025.0
20260502161026 53 280 2.0 4.0 0.00 0.00 0.00 84 1024.9
20260502160527 53 271 2.0 4.0 0.00 0.00 0.00 85 1024.9
20260502152014 51 343 1.0 4.0 0.00 0.00 0.00 88 1024.4
20260502151513 51 288 1.0 3.0 0.00 0.00 0.00 88 1024.6
20260502151014 51 294 1.0 3.0 0.00 0.00 0.00 88 1024.5
20260502150515 51 331 1.0 4.0 0.00 0.00 0.00 87 1024.5
20260502130451 51 285 2.0 4.0 0.00 0.00 0.00 87 1024.6
20260502123445 51 0 2.0 5.0 0.00 0.00 0.00 87 1024.5
20260502122941 51 336 1.0 4.0 0.00 0.00 0.00 88 1024.7
20260502122441 51 336 1.0 3.0 0.00 0.00 0.00 88 1024.5
20260502121943 51 297 1.0 3.0 0.00 0.00 0.00 88 1024.7
20260502121439 51 319 2.0 4.0 0.00 0.00 0.00 88 1024.6
20260502120938 51 278 2.0 4.0 0.00 0.00 0.00 88 1024.6
20260502120439 51 289 2.0 6.0 0.00 0.00 0.00 88 1024.7
20260502115435 50 277 2.0 6.0 0.00 0.00 0.00 88 1024.6
20260502114937 50 266 1.0 4.0 0.00 0.00 0.00 88 1024.6
20260502114436 50 277 1.0 3.0 0.00 0.00 0.00 88 1024.7
20260502113936 50 278 2.0 5.0 0.00 0.00 0.00 89 1024.7
20260502113437 50 355 1.0 5.0 0.00 0.00 0.00 89 1024.6
20260502112935 50 305 1.0 4.0 0.00 0.00 0.00 89 1024.6
20260502112435 50 298 1.0 3.0 0.00 0.00 0.00 89 1024.6
20260502111937 50 284 1.0 2.0 0.00 0.00 0.00 89 1024.6
20260502111431 50 279 1.0 3.0 0.00 0.00 0.00 88 1024.7
20260502110932 50 279 1.0 3.0 0.00 0.00 0.00 89 1024.8
20260502110433 50 300 1.0 3.0 0.00 0.00 0.00 88 1024.7
20260502105931 50 12 1.0 4.0 0.00 0.00 0.00 88 1024.6
20260502105431 50 12 1.0 4.0 0.00 0.00 0.00 88 1024.4
20260502104932 50 34 1.0 4.0 0.00 0.00 0.00 88 1024.5
20260502104428 50 344 1.0 3.0 0.00 0.00 0.00 88 1024.6
20260502103928 50 309 2.0 4.0 0.00 0.00 0.00 88 1024.8
20260502103429 50 307 2.0 4.0 0.00 0.00 0.00 88 1024.6
20260502102928 51 5 2.0 5.0 0.00 0.00 0.00 88 1024.5
20260502102427 51 345 2.0 5.0 0.00 0.00 0.00 88 1024.5
20260502101929 51 355 2.0 5.0 0.00 0.00 0.00 88 1024.5
20260502101428 51 292 1.0 3.0 0.00 0.00 0.00 87 1024.5
20260502100927 51 323 2.0 6.0 0.00 0.00 0.00 87 1024.5
20260502100427 51 315 2.0 7.0 0.00 0.00 0.00 87 1024.5
20260502091427 53 276 3.0 6.0 0.00 0.00 0.00 85 1024.7
20260502090923 53 302 2.0 6.0 0.00 0.00 0.00 84 1024.7
20260502090421 53 274 2.0 5.0 0.00 0.00 0.00 84 1024.8
20260502071351 54 304 1.0 3.0 0.00 0.00 0.00 83 1025.9
20260502070851 54 304 1.0 3.0 0.00 0.00 0.00 83 1025.8
20260502070352 55 308 1.0 4.0 0.00 0.00 0.00 83 1025.7
20260502065850 55 319 1.0 4.0 0.00 0.00 0.00 83 1025.6
20260502065347 55 333 1.0 3.0 0.00 0.00 0.00 83 1025.5
20260502064849 55 274 1.0 3.0 0.00 0.00 0.00 83 1025.5
20260502064345 55 337 1.0 4.0 0.00 0.00 0.00 83 1025.7
20260502063843 55 273 1.0 4.0 0.00 0.00 0.00 83 1025.6
20260502063344 55 333 1.0 4.0 0.00 0.00 0.00 83 1025.5
20260502062838 55 298 1.0 6.0 0.00 0.00 0.00 83 1025.5
20260502062338 55 261 1.0 6.0 0.00 0.00 0.00 83 1025.6
20260502061837 55 288 2.0 6.0 0.00 0.00 0.00 83 1025.6
20260502061337 55 298 2.0 6.0 0.00 0.00 0.00 83 1025.6
20260502060838 55 284 2.0 5.0 0.00 0.00 0.00 83 1025.6
20260502060338 55 320 1.0 4.0 0.00 0.00 0.00 83 1025.5
20260502055833 55 281 0.0 2.0 0.00 0.00 0.00 83 1025.5
20260502055331 55 282 0.0 2.0 0.00 0.00 0.00 83 1025.6
20260502054832 55 281 1.0 2.0 0.00 0.00 0.00 83 1025.4
20260502054331 55 281 1.0 2.0 0.00 0.00 0.00 83 1025.3
20260502053831 55 281 1.0 2.0 0.00 0.00 0.00 83 1025.4
20260502053332 55 281 1.0 4.0 0.00 0.00 0.00 83 1025.3
20260502052827 55 0 1.0 4.0 0.00 0.00 0.00 82 1025.3
20260502052327 55 289 2.0 4.0 0.00 0.00 0.00 83 1025.1
20260502051829 56 273 1.0 4.0 0.00 0.00 0.00 82 1025.1
20260502051328 56 319 2.0 3.0 0.00 0.00 0.00 82 1025.1
20260502050825 56 272 1.0 3.0 0.00 0.00 0.00 82 1025.1
20260502050325 56 350 0.0 3.0 0.00 0.00 0.00 82 1025.0
20260502045822 56 304 0.0 2.0 0.00 0.00 0.00 82 1025.0
20260502045321 56 284 1.0 3.0 0.00 0.00 0.00 82 1024.9
20260502044822 56 283 1.0 3.0 0.00 0.00 0.00 82 1024.9
20260502044321 56 288 2.0 6.0 0.00 0.00 0.00 81 1024.9
20260502043819 56 264 2.0 6.0 0.00 0.00 0.00 81 1024.9
20260502043320 56 281 2.0 8.0 0.00 0.00 0.00 81 1024.9
20260502042815 56 273 3.0 8.0 0.00 0.00 0.00 81 1024.8
20260502042312 57 267 2.0 7.0 0.00 0.00 0.00 81 1024.8
20260502041813 57 284 2.0 6.0 0.00 0.00 0.00 81 1024.6
20260502041313 57 251 3.0 7.0 0.00 0.00 0.00 81 1024.6
20260502040813 57 299 3.0 7.0 0.00 0.00 0.00 81 1024.6
20260502040314 57 249 3.0 7.0 0.00 0.00 0.00 81 1024.5
20260502035808 57 287 4.0 8.0 0.00 0.00 0.00 81 1024.4
20260502035307 57 267 4.0 9.0 0.00 0.00 0.00 81 1024.3
20260502034807 57 296 4.0 9.0 0.00 0.00 0.00 81 1024.3
20260502034307 57 282 3.0 9.0 0.00 0.00 0.00 81 1024.2
20260502033807 57 265 4.0 9.0 0.00 0.00 0.00 81 1024.2
20260502033308 57 239 4.0 9.0 0.00 0.00 0.00 80 1024.2
20260502032802 57 257 4.0 12.0 0.00 0.00 0.00 80 1024.1
20260502032301 57 258 4.0 12.0 0.00 0.00 0.00 79 1024.0
20260502031800 58 234 4.0 11.0 0.00 0.00 0.00 79 1023.9
20260502031301 58 0 4.0 9.0 0.00 0.00 0.00 78 1023.9
20260502030801 58 0 4.0 10.0 0.00 0.00 0.00 77 1023.9
20260502030301 59 296 4.0 10.0 0.00 0.00 0.00 77 1023.8
20260502025758 59 299 3.0 10.0 0.00 0.00 0.00 76 1023.7
20260502025257 60 326 3.0 8.0 0.00 0.00 0.00 76 1023.6
20260502024755 60 267 3.0 9.0 0.00 0.00 0.00 75 1023.6
20260502024255 60 291 3.0 9.0 0.00 0.00 0.00 75 1023.5
20260502023755 61 269 3.0 8.0 0.00 0.00 0.00 74 1023.5
20260502023301 61 304 3.0 7.0 0.00 0.00 0.00 74 1023.4
20260502022753 61 272 2.0 7.0 0.00 0.00 0.00 74 1023.6
20260502022250 61 268 3.0 11.0 0.00 0.00 0.00 73 1023.5
20260502021749 62 0 4.0 11.0 0.00 0.00 0.00 73 1023.4
20260502021249 62 355 3.0 8.0 0.00 0.00 0.00 73 1023.4
20260502020749 62 270 2.0 7.0 0.00 0.00 0.00 72 1023.3
20260502020250 62 254 3.0 9.0 0.00 0.00 0.00 73 1023.3
20260502015744 63 225 4.0 9.0 0.00 0.00 0.00 72 1023.3
20260502015243 63 243 4.0 12.0 0.00 0.00 0.00 71 1023.3
20260502014743 64 203 5.0 12.0 0.00 0.00 0.00 70 1023.2
20260502014243 65 229 4.0 12.0 0.00 0.00 0.00 70 1023.2
20260502013743 65 0 3.0 12.0 0.00 0.00 0.00 69 1023.1
20260502013242 66 273 4.0 8.0 0.00 0.00 0.00 69 1023.2
20260502012736 66 43 3.0 8.0 0.00 0.00 0.00 68 1023.1
20260502012237 67 310 4.0 9.0 0.00 0.00 0.00 68 1023.2
20260502011737 67 263 4.0 11.0 0.00 0.00 0.00 67 1023.3
20260502011236 67 284 4.0 11.0 0.00 0.00 0.00 67 1023.3
20260502010737 67 268 4.0 10.0 0.00 0.00 0.00 67 1023.3
20260502010238 67 288 3.0 9.0 0.00 0.00 0.00 68 1023.2
20260502005732 67 340 3.0 9.0 0.00 0.00 0.00 68 1023.2
20260502005231 68 265 4.0 8.0 0.00 0.00 0.00 66 1023.1
20260502004731 68 265 4.0 8.0 0.00 0.00 0.00 66 1023.2
20260502004231 69 0 5.0 11.0 0.00 0.00 0.00 65 1023.1
20260502003731 69 267 6.0 11.0 0.00 0.00 0.00 63 1023.2
20260502003232 70 311 5.0 11.0 0.00 0.00 0.00 63 1023.1
20260502002733 70 346 4.0 11.0 0.00 0.00 0.00 63 1023.1